Location: Newark
(51.1667°N, 71.4333°E)
Time: 15:26:54
(UTC+00:00)

Envisat - Visible Passes

Search period start: 26 September 2020 00:00
Search period end: 06 October 2020 00:00
Orbit: 764 x 766 km, 98.1° (Epoch: 26 September)

Date Brightness Start Highest point End Pass type
(mag) Time Alt. Az. Time Alt. Az. Time Alt. Az.
26 Sep 6.8 14:14:21 10° W 14:15:30 11° W 14:16:39 10° WNW visible
27 Sep 5.4 00:34:19 10° NNE 00:38:46 29° E 00:43:09 10° SSE visible
27 Sep 6.0 13:34:17 10° SW 13:38:10 22° W 13:42:05 10° NW visible
27 Sep 6.2 23:58:37 10° NE 00:01:31 15° E 00:04:24 10° ESE visible
29 Sep 6.4 14:01:30 10° WSW 14:03:57 13° W 14:06:26 10° NW visible
30 Sep 5.7 00:23:10 10° NE 00:27:17 24° E 00:31:22 10° SE visible
30 Sep 5.6 13:22:26 10° SSW 13:26:41 26° W 13:30:58 10° NW visible
30 Sep 6.5 23:48:00 10° ENE 23:49:59 12° E 23:51:57 10° ESE visible
02 Oct 6.2 13:49:14 10° SW 13:52:26 17° W 13:55:39 10° NW visible
03 Oct 6.0 00:12:05 10° NE 00:15:48 20° E 00:19:28 10° SE visible
05 Oct 5.2 00:36:58 10° NNE 00:41:30 31° E 00:46:00 10° SSE visible
05 Oct 6.0 13:37:12 10° SW 13:40:55 20° W 13:44:40 10° NW visible
